| time (UTC) | temp C | wind direction | speed KPH | gust KPH | rain 1hr cm | rain 24hr cm | rain mn cm | humidity % | barometer mb |
| 20260904200122 | 24 | 281 | 8.0 | 20.9 | 0.00 | 0.00 | 0.00 | 84 | 1013.4 |
| 20260904195558 | 24 | 290 | 11.3 | 20.9 | 0.00 | 0.00 | 0.00 | 84 | 1013.4 |
| 20260904195101 | 24 | 288 | 9.7 | 20.9 | 0.00 | 0.00 | 0.00 | 84 | 1013.5 |
| 20260904194634 | 24 | 297 | 9.7 | 20.9 | 0.00 | 0.00 | 0.00 | 84 | 1013.5 |
| 20260904194057 | 24 | 279 | 6.4 | 22.5 | 0.00 | 0.00 | 0.00 | 84 | 1013.5 |
| 20260904193557 | 24 | 296 | 8.0 | 19.3 | 0.00 | 0.00 | 0.00 | 84 | 1013.6 |
| 20260904193056 | 24 | 307 | 9.7 | 17.7 | 0.00 | 0.00 | 0.00 | 83 | 1013.6 |
| 20260904192556 | 24 | 312 | 4.8 | 16.1 | 0.00 | 0.00 | 0.00 | 83 | 1013.6 |
| 20260904192057 | 24 | 290 | 6.4 | 20.9 | 0.00 | 0.00 | 0.00 | 83 | 1013.6 |
| 20260904191558 | 23 | 304 | 4.8 | 20.9 | 0.00 | 0.00 | 0.00 | 84 | 1013.6 |
| 20260904191050 | 23 | 304 | 11.3 | 19.3 | 0.00 | 0.00 | 0.00 | 83 | 1013.7 |
| 20260904190549 | 23 | 280 | 6.4 | 16.1 | 0.00 | 0.00 | 0.00 | 83 | 1013.9 |
| 20260904190028 | 23 | 314 | 6.4 | 17.7 | 0.00 | 0.00 | 0.00 | 83 | 1013.9 |
| 20260904185526 | 23 | 299 | 8.0 | 17.7 | 0.00 | 0.00 | 0.00 | 83 | 1014.0 |
| 20260904185025 | 23 | 296 | 8.0 | 19.3 | 0.00 | 0.00 | 0.00 | 83 | 1014.1 |
| 20260904184523 | 23 | 287 | 8.0 | 19.3 | 0.00 | 0.00 | 0.00 | 83 | 1014.2 |
| 20260904184023 | 23 | 311 | 11.3 | 17.7 | 0.00 | 0.00 | 0.00 | 83 | 1014.2 |
| 20260904183523 | 23 | 271 | 6.4 | 17.7 | 0.00 | 0.00 | 0.00 | 83 | 1014.2 |
| 20260904183022 | 23 | 300 | 11.3 | 17.7 | 0.00 | 0.00 | 0.00 | 83 | 1014.3 |
| 20260904182521 | 23 | 285 | 8.0 | 20.9 | 0.00 | 0.00 | 0.00 | 83 | 1014.3 |
| 20260904182020 | 23 | 306 | 11.3 | 20.9 | 0.00 | 0.00 | 0.00 | 82 | 1014.3 |
| 20260904181620 | 23 | 302 | 8.0 | 17.7 | 0.00 | 0.00 | 0.00 | 82 | 1014.2 |
| 20260904181036 | 23 | 290 | 6.4 | 16.1 | 0.00 | 0.00 | 0.00 | 82 | 1014.3 |
| 20260904180537 | 23 | 297 | 8.0 | 14.5 | 0.00 | 0.00 | 0.00 | 82 | 1014.2 |
| 20260904180039 | 23 | 326 | 0.0 | 16.1 | 0.00 | 0.00 | 0.00 | 82 | 1014.3 |
| 20260904175532 | 22 | 298 | 8.0 | 16.1 | 0.00 | 0.00 | 0.00 | 82 | 1014.3 |
| 20260904175033 | 22 | 314 | 6.4 | 17.7 | 0.00 | 0.00 | 0.00 | 82 | 1014.3 |
| 20260904174529 | 22 | 306 | 8.0 | 17.7 | 0.00 | 0.00 | 0.00 | 82 | 1014.2 |
| 20260904174029 | 22 | 272 | 3.2 | 11.3 | 0.00 | 0.00 | 0.00 | 82 | 1014.2 |
| 20260904173527 | 22 | 2 | 1.6 | 12.9 | 0.00 | 0.00 | 0.00 | 81 | 1014.2 |
| 20260904173035 | 22 | 304 | 6.4 | 12.9 | 0.00 | 0.00 | 0.00 | 81 | 1014.2 |
| 20260904172526 | 22 | 275 | 4.8 | 12.9 | 0.00 | 0.00 | 0.00 | 81 | 1014.2 |
| 20260904172025 | 22 | 314 | 1.6 | 9.7 | 0.00 | 0.00 | 0.00 | 81 | 1014.2 |
| 20260904171532 | 22 | 298 | 0.0 | 6.4 | 0.00 | 0.00 | 0.00 | 81 | 1014.2 |
| 20260904171022 | 21 | 303 | 0.0 | 9.7 | 0.00 | 0.00 | 0.00 | 81 | 1014.3 |
| 20260904170525 | 21 | 285 | 4.8 | 11.3 | 0.00 | 0.00 | 0.00 | 81 | 1014.2 |
| 20260904170021 | 21 | 298 | 4.8 | 14.5 | 0.00 | 0.00 | 0.00 | 81 | 1014.3 |
| 20260904165520 | 21 | 307 | 6.4 | 11.3 | 0.00 | 0.00 | 0.00 | 81 | 1014.2 |
| 20260904165019 | 21 | 344 | 0.0 | 9.7 | 0.00 | 0.00 | 0.00 | 81 | 1014.1 |
| 20260904164518 | 20 | 327 | 1.6 | 9.7 | 0.00 | 0.00 | 0.00 | 81 | 1014.2 |
| 20260904164020 | 20 | 328 | 1.6 | 11.3 | 0.00 | 0.00 | 0.00 | 81 | 1014.1 |
| 20260904163515 | 20 | 327 | 3.2 | 11.3 | 0.00 | 0.00 | 0.00 | 80 | 1014.1 |
| 20260904163014 | 20 | 18 | 0.0 | 6.4 | 0.00 | 0.00 | 0.00 | 81 | 1014.0 |
| 20260904162513 | 20 | 339 | 0.0 | 6.4 | 0.00 | 0.00 | 0.00 | 81 | 1014.0 |
| 20260904162017 | 20 | 339 | 1.6 | 6.4 | 0.00 | 0.00 | 0.00 | 81 | 1014.0 |
| 20260904161512 | 20 | 340 | 0.0 | 8.0 | 0.00 | 0.00 | 0.00 | 80 | 1014.0 |
| 20260904161011 | 20 | 340 | 4.8 | 11.3 | 0.00 | 0.00 | 0.00 | 80 | 1014.1 |
| 20260904160511 | 20 | 341 | 4.8 | 11.3 | 0.00 | 0.00 | 0.00 | 80 | 1014.1 |
| 20260904160010 | 20 | 351 | 0.0 | 3.2 | 0.00 | 0.00 | 0.00 | 80 | 1014.1 |
| 20260904155508 | 19 | 302 | 0.0 | 0.0 | 0.00 | 0.00 | 0.00 | 80 | 1014.1 |
| 20260904155008 | 19 | 304 | 0.0 | 6.4 | 0.00 | 0.00 | 0.00 | 80 | 1014.1 |
| 20260904154506 | 18 | 304 | 1.6 | 6.4 | 0.00 | 0.00 | 0.00 | 80 | 1013.9 |
| 20260904154005 | 18 | 128 | 0.0 | 3.2 | 0.00 | 0.00 | 0.00 | 80 | 1014.0 |
| 20260904153503 | 18 | 128 | 0.0 | 3.2 | 0.00 | 0.00 | 0.00 | 80 | 1014.0 |
| 20260904153005 | 18 | 128 | 0.0 | 1.6 | 0.00 | 0.00 | 0.00 | 80 | 1014.0 |
| 20260904152500 | 17 | 113 | 0.0 | 1.6 | 0.00 | 0.00 | 0.00 | 81 | 1014.0 |
| 20260904152059 | 17 | 112 | 0.0 | 1.6 | 0.00 | 0.00 | 0.00 | 81 | 1014.1 |
| 20260904151609 | 17 | 112 | 0.0 | 1.6 | 0.00 | 0.00 | 0.00 | 81 | 1014.2 |
| 20260904151057 | 17 | 112 | 0.0 | 3.2 | 0.00 | 0.00 | 0.00 | 81 | 1014.1 |
| 20260904150556 | 16 | 112 | 0.0 | 6.4 | 0.00 | 0.00 | 0.00 | 81 | 1014.0 |
| 20260904150055 | 16 | 112 | 1.6 | 6.4 | 0.00 | 0.00 | 0.00 | 81 | 1014.0 |
| 20260904145552 | 16 | 114 | 0.0 | 4.8 | 0.00 | 0.00 | 0.00 | 81 | 1013.9 |
| 20260904145052 | 16 | 114 | 0.0 | 4.8 | 0.00 | 0.00 | 0.00 | 81 | 1013.7 |
| 20260904144552 | 16 | 114 | 0.0 | 4.8 | 0.00 | 0.00 | 0.00 | 81 | 1013.7 |
| 20260904144051 | 16 | 114 | 0.0 | 4.8 | 0.00 | 0.00 | 0.00 | 81 | 1013.5 |
| 20260904143552 | 16 | 114 | 0.0 | 0.0 | 0.00 | 0.00 | 0.00 | 81 | 1013.6 |
| 20260904143049 | 16 | 114 | 0.0 | 0.0 | 0.00 | 0.00 | 0.00 | 81 | 1013.7 |
| 20260904142548 | 16 | 114 | 0.0 | 3.2 | 0.00 | 0.00 | 0.00 | 81 | 1013.7 |
| 20260904142047 | 16 | 114 | 0.0 | 3.2 | 0.00 | 0.00 | 0.00 | 81 | 1013.6 |
| 20260904141614 | 16 | 114 | 0.0 | 1.6 | 0.00 | 0.00 | 0.00 | 82 | 1013.7 |
| 20260904141046 | 16 | 114 | 0.0 | 4.8 | 0.00 | 0.00 | 0.00 | 81 | 1013.6 |
| 20260904140545 | 16 | 114 | 0.0 | 4.8 | 0.00 | 0.00 | 0.00 | 81 | 1013.7 |
| 20260904140040 | 16 | 114 | 0.0 | 6.4 | 0.00 | 0.00 | 0.00 | 81 | 1013.6 |
| 20260904135538 | 16 | 114 | 3.2 | 6.4 | 0.00 | 0.00 | 0.00 | 81 | 1013.6 |
| 20260904135037 | 16 | 96 | 0.0 | 4.8 | 0.00 | 0.00 | 0.00 | 81 | 1013.4 |
| 20260904134538 | 16 | 96 | 0.0 | 6.4 | 0.00 | 0.00 | 0.00 | 81 | 1013.4 |
| 20260904134035 | 16 | 96 | 1.6 | 6.4 | 0.00 | 0.00 | 0.00 | 81 | 1013.3 |
| 20260904133535 | 16 | 96 | 1.6 | 9.7 | 0.00 | 0.00 | 0.00 | 81 | 1013.4 |
| 20260904133041 | 16 | 98 | 3.2 | 9.7 | 0.00 | 0.00 | 0.00 | 81 | 1013.3 |
| 20260904132535 | 16 | 102 | 3.2 | 9.7 | 0.00 | 0.00 | 0.00 | 81 | 1013.3 |
| 20260904132034 | 16 | 100 | 4.8 | 9.7 | 0.00 | 0.00 | 0.00 | 81 | 1013.3 |
| 20260904131534 | 16 | 114 | 3.2 | 8.0 | 0.00 | 0.00 | 0.00 | 81 | 1013.2 |
| 20260904131036 | 16 | 96 | 0.0 | 6.4 | 0.00 | 0.00 | 0.00 | 81 | 1013.3 |
| 20260904130533 | 16 | 96 | 1.6 | 6.4 | 0.00 | 0.00 | 0.00 | 81 | 1013.2 |
| 20260904130033 | 16 | 90 | 3.2 | 6.4 | 0.00 | 0.00 | 0.00 | 81 | 1013.1 |
| 20260904125533 | 16 | 88 | 3.2 | 6.4 | 0.00 | 0.00 | 0.00 | 81 | 1013.1 |
| 20260904125037 | 16 | 87 | 0.0 | 3.2 | 0.00 | 0.00 | 0.00 | 81 | 1013.0 |
| 20260904124535 | 16 | 87 | 0.0 | 3.2 | 0.00 | 0.00 | 0.00 | 81 | 1013.0 |
| 20260904124034 | 16 | 87 | 0.0 | 0.0 | 0.00 | 0.00 | 0.00 | 81 | 1013.0 |
| 20260904123532 | 16 | 87 | 0.0 | 0.0 | 0.00 | 0.00 | 0.00 | 81 | 1013.1 |
| 20260904123035 | 16 | 87 | 0.0 | 0.0 | 0.00 | 0.00 | 0.00 | 81 | 1013.1 |
| 20260904122531 | 16 | 87 | 0.0 | 0.0 | 0.00 | 0.00 | 0.00 | 81 | 1013.1 |
| 20260904122031 | 16 | 87 | 0.0 | 4.8 | 0.00 | 0.00 | 0.00 | 81 | 1013.0 |
| 20260904121536 | 16 | 87 | 0.0 | 4.8 | 0.00 | 0.00 | 0.00 | 81 | 1013.0 |
| 20260904121031 | 16 | 71 | 0.0 | 0.0 | 0.00 | 0.00 | 0.00 | 81 | 1013.0 |
| 20260904120530 | 16 | 71 | 0.0 | 0.0 | 0.00 | 0.00 | 0.00 | 81 | 1013.0 |
| 20260904120037 | 16 | 71 | 0.0 | 1.6 | 0.00 | 0.00 | 0.00 | 81 | 1013.1 |
| 20260904115531 | 16 | 71 | 0.0 | 1.6 | 0.00 | 0.00 | 0.00 | 81 | 1013.1 |
| 20260904115030 | 16 | 71 | 0.0 | 1.6 | 0.00 | 0.00 | 0.00 | 81 | 1013.1 |
| 20260904114532 | 16 | 71 | 0.0 | 1.6 | 0.00 | 0.00 | 0.00 | 81 | 1013.2 |
| 20260904114031 | 16 | 71 | 0.0 | 1.6 | 0.00 | 0.00 | 0.00 | 81 | 1013.2 |
| 20260904113529 | 16 | 71 | 0.0 | 1.6 | 0.00 | 0.00 | 0.00 | 81 | 1013.2 |
| 20260904113035 | 16 | 71 | 0.0 | 1.6 | 0.00 | 0.00 | 0.00 | 82 | 1013.2 |
| 20260904112528 | 16 | 71 | 0.0 | 0.0 | 0.00 | 0.00 | 0.00 | 81 | 1013.2 |
| 20260904112031 | 16 | 71 | 0.0 | 3.2 | 0.00 | 0.00 | 0.00 | 81 | 1013.2 |
| 20260904111528 | 16 | 71 | 0.0 | 4.8 | 0.00 | 0.00 | 0.00 | 81 | 1013.2 |
| 20260904111028 | 16 | 71 | 0.0 | 4.8 | 0.00 | 0.00 | 0.00 | 81 | 1013.2 |
| 20260904110528 | 16 | 71 | 0.0 | 4.8 | 0.00 | 0.00 | 0.00 | 82 | 1013.2 |
| 20260904110028 | 16 | 71 | 0.0 | 4.8 | 0.00 | 0.00 | 0.00 | 82 | 1013.1 |
| 20260904105528 | 16 | 71 | 1.6 | 4.8 | 0.00 | 0.00 | 0.00 | 82 | 1013.2 |
| 20260904105024 | 16 | 62 | 0.0 | 1.6 | 0.00 | 0.00 | 0.00 | 82 | 1013.1 |
| 20260904104523 | 16 | 62 | 0.0 | 3.2 | 0.00 | 0.00 | 0.00 | 82 | 1013.1 |
| 20260904104022 | 16 | 62 | 0.0 | 3.2 | 0.00 | 0.00 | 0.00 | 81 | 1013.1 |
| 20260904103523 | 16 | 62 | 0.0 | 0.0 | 0.00 | 0.00 | 0.00 | 82 | 1013.0 |
| 20260904103022 | 16 | 62 | 0.0 | 0.0 | 0.00 | 0.00 | 0.00 | 81 | 1013.0 |
| 20260904102523 | 16 | 62 | 0.0 | 0.0 | 0.00 | 0.00 | 0.00 | 82 | 1013.1 |
| 20260904102021 | 16 | 62 | 0.0 | 0.0 | 0.00 | 0.00 | 0.00 | 81 | 1013.0 |
| 20260904101521 | 16 | 62 | 0.0 | 0.0 | 0.00 | 0.00 | 0.00 | 81 | 1012.9 |
| 20260904101021 | 16 | 62 | 0.0 | 0.0 | 0.00 | 0.00 | 0.00 | 81 | 1013.0 |
| 20260904100521 | 16 | 62 | 0.0 | 0.0 | 0.00 | 0.00 | 0.00 | 81 | 1012.9 |
| 20260904100021 | 16 | 62 | 0.0 | 0.0 | 0.00 | 0.00 | 0.00 | 82 | 1012.9 |
| 20260904095525 | 16 | 62 | 0.0 | 0.0 | 0.00 | 0.00 | 0.00 | 82 | 1013.0 |
| 20260904095021 | 16 | 62 | 0.0 | 0.0 | 0.00 | 0.00 | 0.00 | 82 | 1013.0 |
| 20260904094520 | 16 | 62 | 0.0 | 0.0 | 0.00 | 0.00 | 0.00 | 82 | 1013.0 |
| 20260904094022 | 16 | 62 | 0.0 | 0.0 | 0.00 | 0.00 | 0.00 | 82 | 1013.0 |
| 20260904093524 | 16 | 62 | 0.0 | 0.0 | 0.00 | 0.00 | 0.00 | 82 | 1012.9 |
| 20260904093019 | 16 | 62 | 0.0 | 0.0 | 0.00 | 0.00 | 0.00 | 82 | 1012.8 |
| 20260904092523 | 16 | 62 | 0.0 | 0.0 | 0.00 | 0.00 | 0.00 | 82 | 1012.8 |
| 20260904092019 | 16 | 62 | 0.0 | 0.0 | 0.00 | 0.00 | 0.00 | 82 | 1012.8 |
| 20260904091518 | 16 | 62 | 0.0 | 0.0 | 0.00 | 0.00 | 0.00 | 82 | 1012.9 |
| 20260904091018 | 16 | 62 | 0.0 | 0.0 | 0.00 | 0.00 | 0.00 | 82 | 1012.9 |
| 20260904090518 | 16 | 62 | 0.0 | 0.0 | 0.00 | 0.00 | 0.00 | 82 | 1012.8 |
| 20260904090017 | 16 | 62 | 0.0 | 0.0 | 0.00 | 0.00 | 0.00 | 82 | 1012.9 |
| 20260904085517 | 16 | 62 | 0.0 | 0.0 | 0.00 | 0.00 | 0.00 | 82 | 1012.9 |
| 20260904085017 | 16 | 62 | 0.0 | 0.0 | 0.00 | 0.00 | 0.00 | 82 | 1012.9 |
| 20260904084517 | 16 | 62 | 0.0 | 0.0 | 0.00 | 0.00 | 0.00 | 82 | 1013.0 |
| 20260904084018 | 16 | 62 | 0.0 | 1.6 | 0.00 | 0.00 | 0.00 | 82 | 1013.0 |
| 20260904083515 | 16 | 62 | 0.0 | 1.6 | 0.00 | 0.00 | 0.00 | 82 | 1013.0 |
| 20260904083019 | 16 | 62 | 0.0 | 1.6 | 0.00 | 0.00 | 0.00 | 81 | 1013.1 |
| 20260904082514 | 16 | 62 | 0.0 | 0.0 | 0.00 | 0.00 | 0.00 | 81 | 1013.1 |
| 20260904082015 | 16 | 62 | 0.0 | 1.6 | 0.00 | 0.00 | 0.00 | 82 | 1013.2 |
| 20260904081516 | 16 | 62 | 0.0 | 1.6 | 0.00 | 0.00 | 0.00 | 81 | 1013.2 |
| 20260904081013 | 16 | 62 | 0.0 | 3.2 | 0.00 | 0.00 | 0.00 | 82 | 1013.3 |
| 20260904080512 | 16 | 62 | 0.0 | 4.8 | 0.00 | 0.00 | 0.00 | 81 | 1013.4 |
| 20260904080011 | 16 | 62 | 1.6 | 4.8 | 0.00 | 0.00 | 0.00 | 81 | 1013.4 |
| 20260904075512 | 16 | 26 | 0.0 | 0.0 | 0.00 | 0.00 | 0.00 | 81 | 1013.5 |
| 20260904075011 | 16 | 26 | 0.0 | 0.0 | 0.00 | 0.00 | 0.00 | 82 | 1013.5 |
| 20260904074521 | 16 | 26 | 0.0 | 0.0 | 0.00 | 0.00 | 0.00 | 82 | 1013.4 |
| 20260904074010 | 16 | 26 | 0.0 | 0.0 | 0.00 | 0.00 | 0.00 | 82 | 1013.5 |
| 20260904073513 | 16 | 26 | 0.0 | 0.0 | 0.00 | 0.00 | 0.00 | 82 | 1013.5 |
| 20260904073110 | 16 | 26 | 0.0 | 0.0 | 0.00 | 0.00 | 0.00 | 82 | 1013.4 |
| 20260904072508 | 16 | 26 | 0.0 | 0.0 | 0.00 | 0.00 | 0.00 | 81 | 1013.4 |
| 20260904072008 | 16 | 25 | 0.0 | 0.0 | 0.00 | 0.00 | 0.00 | 81 | 1013.4 |
| 20260904071508 | 16 | 25 | 0.0 | 0.0 | 0.00 | 0.00 | 0.00 | 81 | 1013.4 |
| 20260904071008 | 16 | 25 | 0.0 | 0.0 | 0.00 | 0.00 | 0.00 | 81 | 1013.5 |
| 20260904070506 | 16 | 25 | 0.0 | 0.0 | 0.00 | 0.00 | 0.00 | 81 | 1013.5 |
| 20260904070006 | 16 | 25 | 0.0 | 0.0 | 0.00 | 0.00 | 0.00 | 81 | 1013.5 |
| 20260904065506 | 16 | 25 | 0.0 | 0.0 | 0.00 | 0.00 | 0.00 | 81 | 1013.5 |
| 20260904065006 | 16 | 25 | 0.0 | 0.0 | 0.00 | 0.00 | 0.00 | 81 | 1013.5 |
| 20260904064507 | 16 | 25 | 0.0 | 0.0 | 0.00 | 0.00 | 0.00 | 82 | 1013.6 |
| 20260904064005 | 16 | 25 | 0.0 | 0.0 | 0.00 | 0.00 | 0.00 | 82 | 1013.6 |
| 20260904063505 | 16 | 25 | 0.0 | 0.0 | 0.00 | 0.00 | 0.00 | 82 | 1013.6 |
| 20260904063010 | 16 | 25 | 0.0 | 0.0 | 0.00 | 0.00 | 0.00 | 82 | 1013.6 |
| 20260904062504 | 16 | 25 | 0.0 | 0.0 | 0.00 | 0.00 | 0.00 | 82 | 1013.6 |
| 20260904062004 | 16 | 25 | 0.0 | 0.0 | 0.00 | 0.00 | 0.00 | 82 | 1013.5 |
| 20260904061511 | 16 | 25 | 0.0 | 0.0 | 0.00 | 0.00 | 0.00 | 82 | 1013.6 |
| 20260904061004 | 16 | 25 | 0.0 | 0.0 | 0.00 | 0.00 | 0.00 | 82 | 1013.6 |
| 20260904060504 | 16 | 25 | 0.0 | 0.0 | 0.00 | 0.00 | 0.00 | 82 | 1013.6 |
| 20260904060007 | 16 | 25 | 0.0 | 0.0 | 0.00 | 0.00 | 0.00 | 82 | 1013.5 |
| 20260904055504 | 16 | 25 | 0.0 | 0.0 | 0.00 | 0.00 | 0.00 | 82 | 1013.5 |
| 20260904055003 | 16 | 25 | 0.0 | 0.0 | 0.00 | 0.00 | 0.00 | 82 | 1013.6 |
| 20260904054509 | 16 | 25 | 0.0 | 0.0 | 0.00 | 0.00 | 0.00 | 82 | 1013.6 |
| 20260904054002 | 16 | 25 | 0.0 | 0.0 | 0.00 | 0.00 | 0.00 | 82 | 1013.6 |
| 20260904053503 | 16 | 25 | 0.0 | 0.0 | 0.00 | 0.00 | 0.00 | 82 | 1013.6 |
| 20260904053004 | 16 | 25 | 0.0 | 0.0 | 0.00 | 0.00 | 0.00 | 82 | 1013.6 |
| 20260904052504 | 16 | 25 | 0.0 | 0.0 | 0.00 | 0.00 | 0.00 | 83 | 1013.6 |
| 20260904052004 | 16 | 25 | 0.0 | 0.0 | 0.00 | 0.00 | 0.00 | 83 | 1013.7 |
| 20260904051509 | 16 | 25 | 0.0 | 0.0 | 0.00 | 0.00 | 0.00 | 83 | 1013.7 |
| 20260904051003 | 16 | 25 | 0.0 | 1.6 | 0.00 | 0.00 | 0.00 | 83 | 1013.7 |
| 20260904050503 | 16 | 25 | 0.0 | 1.6 | 0.00 | 0.00 | 0.00 | 83 | 1013.6 |
| 20260904050119 | 16 | 25 | 0.0 | 11.3 | 0.00 | 0.00 | 0.00 | 83 | 1013.5 |
| 20260904045556 | 16 | 25 | 0.0 | 11.3 | 0.00 | 0.00 | 0.00 | 83 | 1013.6 |
| 20260904045056 | 16 | 5 | 0.0 | 8.0 | 0.00 | 0.00 | 0.00 | 83 | 1013.6 |
| 20260904044559 | 16 | 48 | 1.6 | 6.4 | 0.00 | 0.00 | 0.00 | 84 | 1013.6 |
| 20260904044055 | 16 | 20 | 0.0 | 8.0 | 0.00 | 0.00 | 0.00 | 84 | 1013.5 |
| 20260904043555 | 16 | 48 | 1.6 | 4.8 | 0.00 | 0.00 | 0.00 | 84 | 1013.4 |
| 20260904043055 | 16 | 58 | 0.0 | 3.2 | 0.00 | 0.00 | 0.00 | 84 | 1013.5 |
| 20260904042556 | 16 | 58 | 0.0 | 3.2 | 0.00 | 0.00 | 0.00 | 84 | 1013.4 |
| 20260904042058 | 16 | 58 | 0.0 | 1.6 | 0.00 | 0.00 | 0.00 | 84 | 1013.4 |
| 20260904041604 | 16 | 58 | 0.0 | 3.2 | 0.00 | 0.00 | 0.00 | 84 | 1013.3 |
| 20260904041054 | 16 | 57 | 0.0 | 4.8 | 0.00 | 0.00 | 0.00 | 84 | 1013.4 |
| 20260904040554 | 16 | 58 | 0.0 | 4.8 | 0.00 | 0.00 | 0.00 | 84 | 1013.4 |
| 20260904040049 | 16 | 33 | 0.0 | 0.0 | 0.00 | 0.00 | 0.00 | 84 | 1013.2 |
| 20260904035548 | 16 | 33 | 0.0 | 1.6 | 0.00 | 0.00 | 0.00 | 84 | 1013.2 |
| 20260904035047 | 16 | 33 | 0.0 | 1.6 | 0.00 | 0.00 | 0.00 | 84 | 1013.1 |
| 20260904034601 | 17 | 32 | 0.0 | 6.4 | 0.00 | 0.00 | 0.00 | 84 | 1013.0 |
| 20260904034050 | 17 | 32 | 0.0 | 9.7 | 0.00 | 0.00 | 0.00 | 84 | 1013.1 |
| 20260904033549 | 17 | 42 | 1.6 | 9.7 | 0.00 | 0.00 | 0.00 | 84 | 1012.9 |
| 20260904033046 | 17 | 77 | 0.0 | 6.4 | 0.00 | 0.00 | 0.00 | 84 | 1012.8 |
| 20260904032547 | 17 | 77 | 0.0 | 6.4 | 0.00 | 0.00 | 0.00 | 84 | 1012.8 |
| 20260904032047 | 17 | 31 | 0.0 | 6.4 | 0.00 | 0.00 | 0.00 | 84 | 1012.8 |
| 20260904031547 | 17 | 23 | 0.0 | 4.8 | 0.00 | 0.00 | 0.00 | 84 | 1012.8 |
| 20260904031046 | 17 | 44 | 0.0 | 14.5 | 0.00 | 0.00 | 0.00 | 84 | 1012.8 |
| 20260904030546 | 17 | 14 | 1.6 | 14.5 | 0.00 | 0.00 | 0.00 | 84 | 1012.8 |
| 20260904030030 | 17 | 16 | 0.0 | 8.0 | 0.00 | 0.00 | 0.00 | 84 | 1012.7 |
| 20260904025529 | 17 | 341 | 1.6 | 11.3 | 0.00 | 0.00 | 0.00 | 84 | 1012.6 |
| 20260904025029 | 17 | 10 | 0.0 | 16.1 | 0.00 | 0.00 | 0.00 | 84 | 1012.6 |
| 20260904024529 | 18 | 27 | 1.6 | 16.1 | 0.00 | 0.00 | 0.00 | 84 | 1012.5 |
| 20260904024028 | 18 | 11 | 4.8 | 14.5 | 0.00 | 0.00 | 0.00 | 84 | 1012.6 |
| 20260904023532 | 18 | 23 | 0.0 | 14.5 | 0.00 | 0.00 | 0.00 | 84 | 1012.5 |
| 20260904023028 | 18 | 25 | 3.2 | 14.5 | 0.00 | 0.00 | 0.00 | 84 | 1012.4 |
| 20260904022528 | 18 | 70 | 0.0 | 12.9 | 0.00 | 0.00 | 0.00 | 84 | 1012.4 |
| 20260904022027 | 18 | 14 | 1.6 | 14.5 | 0.00 | 0.00 | 0.00 | 84 | 1012.4 |
| 20260904021531 | 18 | 31 | 0.0 | 11.3 | 0.00 | 0.00 | 0.00 | 84 | 1012.3 |
| 20260904021028 | 19 | 64 | 0.0 | 12.9 | 0.00 | 0.00 | 0.00 | 84 | 1012.2 |
| 20260904020527 | 19 | 65 | 3.2 | 12.9 | 0.00 | 0.00 | 0.00 | 85 | 1012.2 |
| 20260904020033 | 20 | 339 | 1.6 | 12.9 | 0.00 | 0.00 | 0.00 | 85 | 1012.2 |
| 20260904015520 | 20 | 341 | 3.2 | 19.3 | 0.00 | 0.00 | 0.00 | 86 | 1012.3 |
| 20260904015020 | 20 | 24 | 4.8 | 19.3 | 0.00 | 0.00 | 0.00 | 86 | 1012.3 |
| 20260904014521 | 20 | 17 | 1.6 | 17.7 | 0.00 | 0.00 | 0.00 | 86 | 1012.2 |
| 20260904014021 | 20 | 4 | 3.2 | 16.1 | 0.00 | 0.00 | 0.00 | 86 | 1012.2 |
| 20260904013519 | 20 | 9 | 4.8 | 16.1 | 0.00 | 0.00 | 0.00 | 86 | 1012.2 |
| 20260904013023 | 20 | 67 | 0.0 | 19.3 | 0.00 | 0.00 | 0.00 | 86 | 1012.3 |
| 20260904012520 | 21 | 9 | 3.2 | 19.3 | 0.00 | 0.00 | 0.00 | 86 | 1012.3 |
| 20260904012019 | 21 | 4 | 3.2 | 17.7 | 0.00 | 0.00 | 0.00 | 85 | 1012.3 |
| 20260904011519 | 21 | 55 | 1.6 | 16.1 | 0.00 | 0.00 | 0.00 | 85 | 1012.4 |
| 20260904011017 | 21 | 60 | 1.6 | 9.7 | 0.00 | 0.00 | 0.00 | 85 | 1012.4 |
| 20260904010517 | 21 | 16 | 0.0 | 14.5 | 0.00 | 0.00 | 0.00 | 84 | 1012.4 |
| 20260904010011 | 21 | 51 | 1.6 | 14.5 | 0.00 | 0.00 | 0.00 | 84 | 1012.4 |
| 20260904005510 | 21 | 353 | 4.8 | 14.5 | 0.00 | 0.00 | 0.00 | 83 | 1012.4 |
| 20260904005009 | 22 | 344 | 1.6 | 16.1 | 0.00 | 0.00 | 0.00 | 83 | 1012.4 |
| 20260904004509 | 22 | 50 | 3.2 | 25.7 | 0.00 | 0.00 | 0.00 | 82 | 1012.4 |
| 20260904004009 | 22 | 260 | 8.0 | 25.7 | 0.00 | 0.00 | 0.00 | 82 | 1012.3 |
| 20260904003509 | 22 | 341 | 3.2 | 20.9 | 0.00 | 0.00 | 0.00 | 81 | 1012.4 |
| 20260904003009 | 22 | 2 | 3.2 | 20.9 | 0.00 | 0.00 | 0.00 | 80 | 1012.3 |
| 20260904002508 | 22 | 16 | 3.2 | 14.5 | 0.00 | 0.00 | 0.00 | 81 | 1012.3 |
| 20260904002008 | 22 | 352 | 1.6 | 17.7 | 0.00 | 0.00 | 0.00 | 80 | 1012.3 |
| 20260904001508 | 23 | 7 | 4.8 | 17.7 | 0.00 | 0.00 | 0.00 | 80 | 1012.3 |
| 20260904001007 | 23 | 19 | 4.8 | 19.3 | 0.00 | 0.00 | 0.00 | 79 | 1012.4 |
| 20260904000508 | 23 | 146 | 4.8 | 17.7 | 0.00 | 0.00 | 0.00 | 79 | 1012.3 |
| 20260904000046 | 23 | 56 | 6.4 | 25.7 | 0.00 | 0.00 | 0.00 | 77 | 1012.4 |
| 20260903235545 | 23 | 37 | 8.0 | 25.7 | 0.00 | 0.00 | 0.00 | 76 | 1012.4 |
| 20260903235046 | 23 | 22 | 9.7 | 17.7 | 0.00 | 0.00 | 0.00 | 76 | 1012.4 |
| 20260903234545 | 23 | 67 | 8.0 | 17.7 | 0.00 | 0.00 | 0.00 | 76 | 1012.4 |
| 20260903234044 | 24 | 47 | 4.8 | 17.7 | 0.00 | 0.00 | 0.00 | 76 | 1012.4 |
| 20260903233544 | 24 | 92 | 4.8 | 19.3 | 0.00 | 0.00 | 0.00 | 76 | 1012.5 |
| 20260903233043 | 24 | 13 | 3.2 | 19.3 | 0.00 | 0.00 | 0.00 | 75 | 1012.5 |
| 20260903232543 | 24 | 346 | 6.4 | 22.5 | 0.00 | 0.00 | 0.00 | 75 | 1012.5 |
| 20260903232043 | 24 | 298 | 4.8 | 20.9 | 0.00 | 0.00 | 0.00 | 75 | 1012.5 |
| 20260903231558 | 25 | 79 | 8.0 | 22.5 | 0.00 | 0.00 | 0.00 | 74 | 1012.6 |
| 20260903231042 | 25 | 360 | 3.2 | 19.3 | 0.00 | 0.00 | 0.00 | 75 | 1012.5 |
| 20260903230543 | 25 | 343 | 6.4 | 20.9 | 0.00 | 0.00 | 0.00 | 76 | 1012.6 |
| 20260903230042 | 25 | 2 | 4.8 | 20.9 | 0.00 | 0.00 | 0.00 | 78 | 1012.6 |
| 20260903225542 | 25 | 8 | 3.2 | 24.1 | 0.00 | 0.00 | 0.00 | 78 | 1012.6 |
| 20260903225043 | 25 | 335 | 6.4 | 24.1 | 0.00 | 0.00 | 0.00 | 79 | 1012.7 |
| 20260903224539 | 25 | 289 | 1.6 | 17.7 | 0.00 | 0.00 | 0.00 | 80 | 1012.7 |
| 20260903224042 | 25 | 6 | 3.2 | 17.7 | 0.00 | 0.00 | 0.00 | 82 | 1012.8 |
| 20260903223539 | 25 | 21 | 3.2 | 20.9 | 0.00 | 0.00 | 0.00 | 82 | 1012.8 |
| 20260903223043 | 25 | 10 | 4.8 | 20.9 | 0.00 | 0.00 | 0.00 | 82 | 1012.8 |
| 20260903222536 | 25 | 53 | 0.0 | 19.3 | 0.00 | 0.00 | 0.00 | 83 | 1012.9 |
| 20260903222037 | 25 | 352 | 4.8 | 19.3 | 0.00 | 0.00 | 0.00 | 82 | 1012.9 |
| 20260903221539 | 25 | 12 | 3.2 | 14.5 | 0.00 | 0.00 | 0.00 | 83 | 1012.8 |
| 20260903221035 | 25 | 301 | 8.0 | 22.5 | 0.00 | 0.00 | 0.00 | 84 | 1012.9 |
| 20260903220534 | 25 | 299 | 9.7 | 22.5 | 0.00 | 0.00 | 0.00 | 84 | 1013.0 |
| 20260903220055 | 25 | 310 | 6.4 | 20.9 | 0.00 | 0.00 | 0.00 | 84 | 1013.2 |
| 20260903215535 | 25 | 308 | 6.4 | 20.9 | 0.00 | 0.00 | 0.00 | 84 | 1013.3 |
| 20260903215032 | 25 | 285 | 6.4 | 22.5 | 0.00 | 0.00 | 0.00 | 84 | 1013.3 |
| 20260903214533 | 25 | 305 | 9.7 | 22.5 | 0.00 | 0.00 | 0.00 | 84 | 1013.4 |
| 20260903214030 | 25 | 325 | 9.7 | 19.3 | 0.00 | 0.00 | 0.00 | 83 | 1013.4 |
| 20260903213529 | 25 | 279 | 9.7 | 19.3 | 0.00 | 0.00 | 0.00 | 83 | 1013.4 |
| 20260903213030 | 25 | 296 | 12.9 | 19.3 | 0.00 | 0.00 | 0.00 | 84 | 1013.4 |
| 20260903212527 | 24 | 263 | 8.0 | 24.1 | 0.00 | 0.00 | 0.00 | 84 | 1013.5 |
| 20260903212030 | 24 | 308 | 9.7 | 20.9 | 0.00 | 0.00 | 0.00 | 84 | 1013.5 |
| 20260903211527 | 25 | 274 | 9.7 | 20.9 | 0.00 | 0.00 | 0.00 | 84 | 1013.4 |
| 20260903211025 | 25 | 293 | 9.7 | 19.3 | 0.00 | 0.00 | 0.00 | 83 | 1013.5 |
| 20260903210524 | 25 | 305 | 11.3 | 19.3 | 0.00 | 0.00 | 0.00 | 84 | 1013.4 |
| 20260903210024 | 25 | 296 | 11.3 | 24.1 | 0.00 | 0.00 | 0.00 | 83 | 1013.6 |
| 20260903205522 | 25 | 291 | 11.3 | 24.1 | 0.00 | 0.00 | 0.00 | 83 | 1013.5 |
| 20260903205022 | 24 | 302 | 8.0 | 17.7 | 0.00 | 0.00 | 0.00 | 83 | 1013.5 |
| 20260903204521 | 24 | 310 | 8.0 | 17.7 | 0.00 | 0.00 | 0.00 | 83 | 1013.5 |
| 20260903204019 | 24 | 275 | 8.0 | 16.1 | 0.00 | 0.00 | 0.00 | 83 | 1013.5 |
| 20260903203522 | 23 | 302 | 3.2 | 16.1 | 0.00 | 0.00 | 0.00 | 83 | 1013.6 |
| 20260903203023 | 23 | 317 | 6.4 | 16.1 | 0.00 | 0.00 | 0.00 | 84 | 1013.6 |
| 20260903202514 | 23 | 260 | 6.4 | 16.1 | 0.00 | 0.00 | 0.00 | 83 | 1013.7 |
| 20260903202014 | 23 | 291 | 6.4 | 19.3 | 0.00 | 0.00 | 0.00 | 84 | 1013.6 |
| 20260903201515 | 22 | 291 | 6.4 | 22.5 | 0.00 | 0.00 | 0.00 | 84 | 1013.7 |
| 20260903201012 | 22 | 267 | 8.0 | 19.3 | 0.00 | 0.00 | 0.00 | 84 | 1013.6 |
| 20260903200513 | 22 | 261 | 8.0 | 19.3 | 0.00 | 0.00 | 0.00 | 83 | 1013.6 |